Theta_e
312 312 314 315 314 310 314 315 320 324 325 343 344 345 346 346 349 350 345 347 352 350 349 342 338 335 325 322 329 334 336 338 338 339 338 337 331 326 327 326 324 324 325 325 323 322 321 320 320
310 314 316 316 307 308 308 314 320 319 323 322 334 344 345 346 345 345 345 348 351 352 348 343 337 334 328 323 326 333 334 336 333 330 332 334 325 326 326 324 325 325 324 323 322 321 320 320 320
310 318 319 312 305 306 307 310 314 315 317 317 327 341 345 348 345 344 345 345 350 351 345 341 335 334 330 324 323 324 326 324 321 322 325 324 325 326 325 325 325 325 323 321 321 320 320 320 321
313 321 320 315 315 311 309 312 311 313 317 317 317 316 320 330 340 339 343 347 350 349 345 341 336 334 332 324 324 323 322 321 321 322 324 324 325 325 325 325 325 323 322 321 321 321 320 323 327
317 320 316 317 317 315 312 314 315 314 314 317 318 316 320 322 326 331 341 345 351 347 344 341 338 335 333 325 323 324 323 322 323 324 324 325 326 325 326 325 323 322 321 321 321 320 321 326 330
318 316 314 314 313 314 314 315 315 315 315 316 317 318 330 343 346 348 343 342 352 346 344 341 338 337 334 329 324 323 323 323 324 324 325 326 325 326 325 323 322 321 321 321 320 320 326 335 338
313 311 314 314 315 317 316 316 315 315 316 316 319 318 321 326 319 332 349 343 351 345 343 341 338 337 335 332 326 323 324 323 325 325 327 326 325 325 323 321 321 321 321 320 320 325 336 341 344
313 308 312 312 314 315 314 314 315 315 315 317 318 316 317 318 320 333 346 349 352 345 343 341 340 337 333 333 329 324 324 324 325 327 326 325 325 323 321 321 321 321 320 321 321 327 339 344 346
312 308 307 310 312 312 313 311 313 314 315 316 316 316 316 318 323 338 340 352 351 345 342 341 340 339 336 333 331 324 324 325 326 326 325 325 323 321 321 321 321 321 322 323 324 330 341 345 346
308 306 308 308 311 311 311 311 312 313 313 314 315 315 316 317 325 341 343 344 351 347 341 340 341 339 338 335 333 326 324 325 326 326 326 325 323 321 321 321 320 321 332 331 331 338 343 343 342
308 308 308 311 313 313 310 311 314 313 311 314 314 315 315 316 322 343 346 346 346 347 343 339 340 340 339 337 334 330 324 324 326 326 326 324 322 321 321 321 321 321 340 341 344 345 345 344 344
311 311 311 312 313 311 310 313 312 314 314 315 315 315 315 316 316 340 345 347 346 346 343 339 338 340 340 338 335 334 327 324 325 326 325 324 322 321 321 322 327 335 341 343 343 344 345 345 344
308 310 312 311 311 310 311 311 312 313 316 316 315 315 316 316 317 325 344 345 347 346 346 346 339 338 339 339 336 335 333 326 324 325 325 324 322 321 322 331 337 341 342 342 343 343 344 345 342
309 309 309 309 310 310 309 309 312 314 316 316 315 315 315 316 317 318 330 340 339 345 346 345 345 340 341 339 338 335 336 332 326 324 324 324 322 322 330 335 337 339 340 341 343 344 345 347 346
309 307 306 307 308 309 311 310 311 314 315 313 314 314 315 316 316 317 319 327 338 345 346 343 342 342 342 341 339 336 336 335 331 325 324 323 322 327 334 335 336 337 336 334 343 345 346 345 340
308 306 306 307 308 309 310 311 310 313 313 311 312 313 314 316 316 317 323 336 345 346 345 341 339 339 339 341 340 337 335 336 334 329 324 323 323 335 336 334 336 335 333 333 343 346 345 343 342
309 311 309 311 308 310 309 310 310 311 311 310 312 311 312 314 316 316 323 338 345 345 345 341 340 340 345 339 340 339 335 336 336 332 324 323 324 337 338 337 336 335 335 338 345 344 344 345 342
314 313 313 315 313 314 314 314 314 315 312 310 311 311 312 312 314 316 318 325 343 344 344 343 341 339 345 339 340 339 336 335 336 332 324 324 335 339 337 338 338 337 335 339 344 345 345 344 339
314 314 314 316 315 314 315 316 316 315 310 309 309 311 311 312 315 316 317 320 336 341 342 342 341 340 336 335 339 340 337 335 335 330 324 324 332 338 337 337 338 338 337 341 343 344 342 340 338
316 317 318 317 316 315 316 316 315 313 313 313 312 311 312 313 313 315 317 317 325 334 339 338 339 339 338 333 337 338 335 332 330 326 324 328 334 338 339 339 338 337 335 337 341 339 341 340 337
316 317 317 317 317 317 318 318 316 314 314 314 314 313 312 313 312 314 316 318 326 332 337 334 333 336 338 332 332 331 327 326 327 323 328 339 340 339 339 339 337 336 336 339 340 342 341 336 334
317 316 317 319 320 322 318 321 317 316 314 312 311 312 312 312 313 313 315 321 334 334 334 331 332 339 337 332 329 332 328 322 321 330 338 340 341 341 339 337 336 337 338 342 340 339 337 335 330
318 317 318 320 321 321 322 321 319 314 315 314 314 311 311 312 312 314 316 318 332 339 341 334 339 341 337 333 331 336 327 325 331 337 338 340 342 342 339 337 337 338 342 340 339 336 335 331 325
315 318 318 319 320 321 316 319 316 315 313 312 312 311 312 313 313 313 316 319 336 340 343 342 341 341 338 336 335 337 332 335 336 337 337 340 341 340 338 338 340 343 340 339 338 335 330 325 318
315 318 324 316 322 322 316 317 316 317 320 316 311 310 312 313 313 314 318 331 342 340 342 341 340 340 339 339 336 337 336 338 341 339 340 342 341 338 337 340 343 341 338 338 335 331 325 319 316
316 320 323 324 325 324 318 320 316 322 322 322 323 319 312 314 315 316 316 322 341 341 341 342 341 342 340 341 339 339 340 341 344 342 342 342 340 338 338 341 340 338 336 334 331 324 319 316 315
321 323 320 319 321 323 319 317 316 321 322 322 322 323 323 315 315 315 316 320 340 341 339 337 342 339 341 342 342 341 338 340 338 342 342 341 340 338 340 340 337 336 333 330 327 321 316 315 316
320 320 324 320 322 325 325 325 327 324 323 322 324 322 323 325 317 316 318 320 337 333 337 334 340 343 344 344 343 342 340 335 333 341 341 339 338 340 341 337 334 333 330 327 322 316 316 316 315
321 322 322 323 322 325 326 327 324 322 324 324 323 324 324 325 318 321 319 321 325 330 337 339 339 342 343 338 335 336 334 334 338 340 340 337 340 340 339 334 332 329 327 323 317 317 316 314 312
318 321 321 325 327 319 322 325 323 319 324 324 324 325 328 327 324 322 322 325 323 336 339 340 341 341 329 330 334 332 332 332 334 340 338 340 340 337 334 331 329 327 323 319 317 317 314 310 309
Wind_Speed
3 4 7 7 3 5 4 6 2 2 1 4 6 4 7 5 6 5 5 19 22 29 37 38 34 29 26 27 29 29 26 24 22 22 21 20 18 19 16 15 15 15 14 13 12 11 10 8 7
2 8 8 3 4 2 5 4 5 7 4 12 7 4 4 7 21 12 13 21 23 35 41 41 36 32 29 29 29 29 27 26 24 23 22 21 20 18 16 16 16 15 14 13 12 11 9 7 6
5 10 5 4 5 6 5 5 2 1 6 8 4 5 5 5 9 8 15 20 30 36 42 41 38 36 32 31 30 29 29 28 26 25 24 22 20 18 17 16 15 14 13 12 11 10 8 6 5
6 5 2 3 8 5 4 3 3 5 5 6 10 7 12 14 9 11 17 21 33 34 42 41 39 38 34 32 31 30 29 28 28 27 25 23 21 19 17 16 14 13 13 13 11 9 8 5 5
7 3 1 2 4 3 3 5 6 5 4 10 11 7 13 21 20 22 22 25 27 37 43 41 38 38 35 33 32 32 30 29 28 27 26 23 21 20 17 15 14 13 13 12 10 8 7 6 4
3 3 2 6 3 2 5 5 2 3 4 9 8 14 10 14 15 16 17 19 29 38 43 42 39 36 35 34 32 32 31 30 28 28 25 24 22 20 17 15 14 13 12 11 9 7 6 7 5
5 4 4 3 3 1 0 5 3 3 6 4 14 5 11 8 31 24 17 24 32 39 44 43 41 37 35 34 33 32 32 31 29 28 26 24 22 19 17 15 14 13 12 10 9 9 7 5 4
2 3 1 3 2 2 0 11 8 8 8 13 10 5 9 31 37 29 18 25 32 39 44 44 42 38 36 34 33 32 32 32 30 28 27 25 21 19 17 16 15 13 12 10 9 10 8 4 1
2 3 1 4 2 2 11 6 19 14 14 17 15 30 32 32 36 19 23 23 31 39 44 45 44 41 37 35 32 31 31 31 30 28 27 25 22 20 18 16 14 12 11 10 9 10 9 6 3
3 3 5 5 3 6 9 11 17 8 15 15 22 27 26 26 29 17 30 34 36 42 46 47 46 44 41 37 35 32 32 33 32 30 27 24 22 20 18 16 14 13 11 10 9 9 6 5 4
1 4 4 6 17 9 4 11 11 6 6 11 17 27 29 24 26 20 24 28 38 41 47 49 48 46 43 41 38 34 34 34 32 30 27 24 22 20 19 17 15 13 13 11 8 6 5 3 5
2 11 13 7 13 13 8 11 7 17 18 24 24 22 28 25 26 26 25 25 27 35 43 50 49 48 45 43 41 38 35 33 32 31 28 25 24 22 19 17 14 14 13 11 9 6 5 6 3
5 4 7 17 22 23 24 15 14 19 29 26 18 25 28 25 23 22 28 27 24 30 36 40 46 48 47 46 43 40 35 32 31 30 27 24 23 21 20 18 16 14 12 9 8 5 5 4 5
4 13 17 17 24 22 12 18 13 15 24 29 25 22 26 26 25 25 26 29 33 32 34 39 38 43 46 47 45 41 36 32 31 30 27 24 22 20 19 17 15 14 9 6 5 5 5 6 8
9 7 7 5 5 6 6 8 9 22 23 16 12 13 17 24 24 24 24 25 37 35 36 39 38 38 42 45 44 41 37 34 31 28 26 24 22 19 18 16 12 13 9 5 5 4 5 6 9
6 2 5 5 8 7 4 16 6 12 11 15 24 12 16 19 20 22 20 19 33 31 33 39 40 37 37 44 42 40 38 34 30 27 26 24 22 20 16 14 13 11 7 7 7 6 6 7 9
3 6 6 9 5 5 5 14 5 12 23 28 22 22 17 20 20 17 18 19 33 28 32 42 38 34 32 41 43 39 36 34 31 28 26 23 22 20 17 14 12 9 7 8 8 8 7 9 10
8 9 9 15 5 12 19 24 25 22 20 25 26 26 16 21 22 15 18 18 32 31 30 31 33 36 32 37 40 39 37 34 31 28 26 23 22 18 15 14 12 10 9 10 10 8 9 10 10
14 13 18 23 16 13 19 24 25 22 17 19 21 23 19 20 24 20 17 20 26 33 31 27 21 27 33 36 39 39 39 36 33 29 25 23 22 18 16 15 13 12 12 11 10 10 10 11 9
11 15 23 18 13 9 17 25 22 23 20 22 23 23 25 26 28 23 21 21 26 31 37 29 22 18 33 37 38 38 36 34 31 28 25 22 21 18 15 15 15 14 13 11 10 10 9 8 10
12 10 18 21 21 15 21 28 18 16 24 28 28 32 29 27 31 26 22 25 25 29 37 40 28 29 34 36 35 34 33 32 31 29 27 23 20 19 17 16 14 13 11 9 8 7 7 7 9
7 5 11 15 11 10 4 15 17 15 17 14 19 25 32 31 33 30 26 28 28 28 40 49 45 40 37 39 37 34 33 35 34 29 27 25 23 22 19 16 13 12 10 9 7 7 5 7 8
11 15 14 17 14 12 16 7 8 8 13 19 17 21 27 29 33 33 27 30 31 33 38 54 57 46 40 39 40 36 34 33 31 31 29 26 25 23 20 18 15 12 10 5 5 6 5 6 7
12 7 19 9 2 3 7 6 7 6 8 13 6 19 27 28 34 36 27 32 36 38 47 46 48 45 45 42 45 39 35 32 32 33 28 26 27 25 21 17 15 12 8 6 8 5 4 5 5
5 11 5 5 1 4 7 3 8 10 13 9 10 17 25 26 30 34 29 29 36 46 46 43 46 47 46 43 43 44 35 30 27 32 30 28 28 26 22 19 14 12 9 6 6 5 5 4 3
8 2 2 6 6 11 5 5 5 10 13 17 15 12 17 23 29 28 27 34 42 48 45 48 45 46 39 42 46 40 31 37 26 30 27 29 27 24 23 18 15 10 5 4 5 3 3 2 2
3 5 4 5 5 4 3 5 5 16 16 17 12 11 8 5 17 26 28 37 45 48 50 50 52 44 42 47 42 42 29 36 28 31 29 30 22 27 23 19 16 10 6 5 4 3 3 1 4
2 8 3 3 5 4 4 2 4 21 25 21 17 12 16 5 12 23 28 37 43 41 46 48 46 41 45 43 44 47 33 29 28 37 30 27 32 26 20 21 15 11 8 6 5 4 1 3 5
4 7 4 3 4 3 4 1 4 15 19 18 17 18 16 10 10 24 30 36 37 40 47 48 49 47 45 37 37 39 37 34 38 35 33 35 30 24 24 19 13 11 9 8 6 2 1 4 5
6 7 6 3 7 2 3 3 6 17 15 14 15 19 21 13 9 24 27 34 33 41 45 47 43 41 30 28 28 29 35 40 40 37 40 34 30 24 20 17 13 11 8 7 3 1 1 3 7
Wind_Direction
265 201 165 154 75 62 263 250 282 212 161 358 133 149 194 172 174 214 233 185 192 183 181 179 183 185 185 187 185 184 184 184 185 184 181 180 175 169 168 170 164 154 146 140 132 124 118 115 120
195 153 145 129 112 152 257 250 198 231 299 317 280 225 225 246 238 266 226 188 185 187 181 179 184 186 186 186 186 186 188 189 189 186 183 180 176 173 173 170 163 154 145 137 129 125 126 130 133
164 159 157 142 165 190 207 223 249 312 316 310 311 252 260 220 252 244 234 204 188 186 183 183 182 185 186 185 185 187 188 186 184 180 178 177 177 176 174 170 163 154 144 136 132 132 135 135 142
153 156 82 131 225 254 199 105 355 1 341 27 337 292 290 274 289 295 228 220 188 189 186 185 185 184 184 185 185 186 187 183 179 177 177 177 178 175 173 171 165 152 145 140 139 142 141 138 137
155 132 114 250 256 258 250 302 336 338 276 303 319 304 292 293 293 278 260 214 190 191 188 186 188 185 184 183 186 185 186 184 179 179 179 180 177 174 174 171 162 152 147 144 144 150 151 142 147
104 100 91 244 211 261 294 284 318 296 337 307 357 315 281 352 315 286 233 206 197 190 188 188 189 190 186 184 187 185 185 186 183 182 182 179 178 174 172 169 161 154 151 150 154 158 152 147 157
118 90 229 266 185 329 107 3 58 345 294 264 339 282 273 304 336 320 254 212 198 192 189 190 189 191 191 188 187 186 187 187 186 185 183 181 179 174 170 167 163 157 154 161 161 165 162 157 168
108 95 294 264 64 266 34 351 336 352 288 315 317 267 307 312 328 302 261 206 197 193 193 193 194 192 192 190 190 187 188 188 187 186 184 182 179 175 170 170 167 162 163 168 168 171 173 184 209
108 48 323 276 323 253 314 355 314 312 284 278 293 294 295 310 330 269 235 210 199 198 197 197 195 195 195 192 191 190 188 189 189 188 186 183 180 176 172 173 170 168 167 168 173 173 182 203 240
101 116 226 221 272 272 283 299 299 294 295 282 292 292 291 310 322 253 225 218 205 200 201 202 199 197 197 196 193 192 189 190 191 190 188 185 181 176 176 177 175 171 166 166 169 174 190 225 258
70 196 220 266 290 298 264 298 295 275 272 267 278 294 294 301 305 256 225 221 215 208 204 204 202 200 199 198 198 195 194 192 192 191 192 186 183 181 182 180 179 170 166 166 170 184 209 262 312
300 241 251 261 291 308 291 287 259 267 270 287 287 293 292 287 290 266 241 230 221 214 212 208 205 202 201 202 200 199 197 195 195 193 192 192 187 187 185 182 178 170 176 179 188 218 253 258 288
217 266 284 291 288 287 281 254 257 256 282 284 272 287 287 280 278 268 258 244 227 221 214 211 209 205 203 204 203 202 200 199 199 198 195 195 194 192 187 181 175 178 187 192 206 231 246 235 292
258 274 279 282 270 268 259 263 254 257 259 271 279 274 280 283 271 270 247 245 242 225 216 212 209 211 209 207 206 204 201 202 204 202 200 197 197 196 192 184 183 191 193 200 213 228 236 273 284
282 307 319 260 252 255 292 284 223 261 264 252 270 290 283 280 281 270 270 252 235 220 216 209 208 212 216 214 210 207 204 204 207 207 203 201 199 200 201 195 193 199 207 218 209 227 256 276 300
341 321 339 280 305 264 113 277 295 272 259 297 301 287 289 278 283 279 274 244 214 212 211 209 211 213 218 219 215 211 208 206 208 211 209 205 200 201 206 205 206 210 220 222 225 240 261 289 306
326 268 284 306 226 281 162 289 260 290 298 287 273 279 285 282 278 272 269 240 217 214 212 207 211 212 219 221 216 214 214 212 212 212 212 208 206 209 211 213 220 224 231 226 227 245 271 296 304
281 281 278 276 255 296 287 273 283 276 266 260 266 278 269 271 273 259 264 256 223 219 207 206 207 212 217 223 216 214 215 218 217 215 212 208 205 210 214 222 223 233 233 230 240 262 287 299 299
282 277 265 276 279 282 272 272 279 287 248 251 255 259 259 261 257 261 243 250 237 220 211 201 202 213 223 221 214 215 216 218 220 217 212 210 208 215 222 224 233 239 239 236 251 273 293 296 298
265 273 281 283 281 259 272 267 270 269 263 250 251 252 252 259 257 255 242 238 242 219 214 207 212 229 225 221 217 218 219 220 222 218 209 203 204 213 216 231 242 240 242 244 252 275 286 293 310
270 260 275 279 296 275 280 280 261 258 254 258 252 245 240 245 253 247 239 236 229 220 205 211 215 232 221 218 215 218 219 218 217 212 205 196 203 215 220 229 239 233 232 244 262 274 282 296 306
288 250 271 282 296 299 195 293 286 276 266 244 228 222 230 236 239 238 238 236 222 216 202 184 215 218 215 211 209 211 212 204 208 202 197 201 208 216 219 227 225 228 235 243 267 284 279 295 285
262 292 280 276 274 295 281 263 269 297 273 269 249 227 229 231 235 228 230 226 219 214 202 201 209 216 213 207 206 205 204 204 200 196 200 207 212 213 218 218 221 225 230 244 276 277 278 285 267
279 305 294 279 274 228 274 188 283 343 276 292 246 220 222 229 241 234 227 222 210 204 197 197 201 205 204 201 202 203 202 200 203 206 202 203 208 209 211 218 218 217 222 242 271 261 264 255 261
24 332 310 342 327 252 230 228 254 288 323 300 275 228 233 228 230 225 218 206 196 195 192 190 194 195 199 195 205 206 200 201 206 204 197 198 198 204 210 214 215 215 217 249 256 236 230 234 247
307 320 306 304 302 296 295 238 272 323 333 326 343 319 229 215 206 214 225 213 197 189 189 191 197 201 206 209 204 194 191 194 190 198 202 199 197 207 209 207 211 205 232 226 229 222 235 239 328
354 315 255 267 241 268 216 275 292 330 335 343 349 13 36 168 196 200 209 214 200 196 195 202 197 203 205 203 194 192 182 185 180 216 205 203 207 205 201 211 200 188 196 206 227 221 205 267 356
220 311 289 230 304 292 286 287 323 339 335 337 339 350 345 284 204 195 203 209 207 201 201 197 198 203 200 199 201 202 209 207 196 203 207 199 197 197 196 191 180 180 179 201 199 192 176 334 346
342 316 282 268 250 286 302 330 335 332 326 324 326 321 311 268 196 188 195 204 207 206 202 207 209 206 201 220 216 215 212 213 201 201 196 193 193 188 187 179 177 170 189 178 171 195 293 339 343
308 306 305 287 315 286 267 307 299 326 333 333 314 308 296 232 195 191 194 195 206 205 204 208 205 203 197 186 190 201 194 205 202 199 187 187 184 176 176 167 169 170 162 164 163 236 323 339 338